Wind_Speed
9 9 10 10 11 11 12 13 13 14 14 14 14 14 13 14 13 13 13 13 14 14 14 14 14 13 13 14 14 14 14 14 14 13 13 12 12 12 12 12 11 11 11 11
9 10 11 11 12 12 13 14 14 14 14 13 13 13 13 13 13 13 13 13 13 14 14 14 14 13 14 14 14 14 14 14 13 13 13 13 13 13 12 12 12 12 11 11
10 11 12 12 11 12 13 13 14 14 13 13 14 14 13 13 14 12 13 13 13 14 14 14 14 14 14 14 14 14 14 14 14 13 13 13 13 13 12 12 12 12 12 12
11 11 12 13 13 13 13 13 13 13 13 13 14 14 14 15 14 13 14 14 14 14 15 15 14 14 14 14 14 15 14 14 14 13 13 13 13 12 12 13 13 12 12 11
11 12 13 13 12 12 12 12 12 12 12 12 13 14 14 15 15 14 14 14 15 15 15 15 15 14 14 14 15 15 15 14 14 13 13 14 14 13 13 13 13 13 13 12
11 12 13 13 13 12 11 12 12 12 12 13 12 14 16 16 16 16 15 14 15 15 15 15 15 15 15 15 15 15 15 14 14 14 14 14 14 13 13 13 13 14 13 13
11 12 12 12 13 12 11 11 11 11 11 13 14 15 16 17 17 17 16 16 16 16 16 15 15 15 15 15 16 16 15 15 15 15 15 15 15 15 14 14 13 13 13 13
12 12 13 13 13 13 12 11 11 11 10 12 14 15 17 17 16 17 17 16 17 17 17 16 16 16 16 16 16 17 17 16 16 16 15 15 16 16 15 15 14 14 13 13
14 14 13 14 13 13 13 12 11 12 12 13 14 16 18 17 17 17 17 17 17 17 17 17 17 17 17 17 17 17 17 17 17 17 16 16 15 15 15 15 15 15 15 15
15 15 14 14 14 13 13 12 12 12 13 13 14 17 19 19 19 18 18 18 18 18 18 18 18 18 18 18 18 18 18 18 18 18 18 18 17 17 16 16 16 17 16 16
15 15 14 13 14 14 13 13 13 13 14 14 14 16 19 19 19 19 19 19 19 19 18 18 18 18 19 19 19 19 19 19 19 19 19 19 19 19 18 18 17 17 17 17
15 15 15 14 14 14 14 13 14 14 14 15 16 18 18 20 20 20 20 19 19 19 19 20 20 19 19 19 20 20 20 19 20 20 20 20 20 19 19 19 19 19 19 19
14 15 15 15 15 15 15 14 15 15 16 16 17 18 18 20 21 21 21 20 20 20 20 20 21 20 20 20 20 20 20 19 20 20 21 21 21 20 21 20 20 20 20 20
15 15 15 15 15 16 17 17 17 17 18 18 18 19 20 20 21 21 21 21 21 21 21 21 21 21 20 21 20 21 21 21 21 21 21 21 21 22 22 22 22 22 22 22
17 16 16 16 16 16 17 18 18 19 19 20 19 20 21 21 22 23 22 22 22 22 22 22 22 21 21 21 21 22 22 23 23 22 22 22 22 22 23 23 23 24 24 25
17 17 17 17 17 18 19 19 19 19 20 20 20 21 22 22 22 23 23 22 22 23 23 23 23 22 22 22 23 23 24 24 25 24 24 24 24 24 24 23 24 24 25 25
19 19 19 19 19 21 21 20 20 21 21 21 22 22 22 23 23 23 24 24 23 23 23 23 24 24 24 23 23 24 25 26 26 26 26 25 25 25 25 25 25 25 25 25
21 21 21 21 21 22 22 21 21 22 22 22 23 23 23 23 23 23 24 25 24 23 23 23 24 24 24 25 25 25 26 26 26 26 26 26 25 25 25 25 25 26 25 25
22 23 23 23 23 24 23 22 22 22 23 23 23 23 23 23 24 24 25 25 25 23 24 24 24 24 24 25 25 26 26 26 26 26 26 26 26 26 27 27 27 27 26 26
23 23 23 24 24 25 23 23 23 23 23 23 23 23 23 23 24 24 25 25 25 24 24 24 25 25 25 25 26 27 26 27 27 27 27 27 27 27 27 28 28 27 27 27
23 23 24 24 25 25 24 24 24 24 24 23 24 24 25 24 24 25 25 24 25 25 24 24 25 25 25 26 26 27 27 27 28 27 27 27 28 28 29 28 28 29 28 28
24 24 23 24 25 26 25 26 26 25 25 25 25 25 25 24 24 25 25 25 25 25 26 25 26 26 27 27 27 27 27 27 28 28 28 28 29 29 29 29 29 29 29 29
24 24 24 24 25 25 25 26 27 26 27 26 26 26 26 25 25 25 25 25 25 26 27 27 27 27 27 27 27 27 27 28 28 29 29 29 30 30 30 30 29 30 30 31
24 25 26 27 27 26 26 27 27 27 27 27 27 26 26 25 25 25 25 25 26 26 27 27 27 27 27 27 28 28 28 29 29 29 30 30 30 30 30 29 30 30 30 30
26 26 27 28 27 27 26 26 27 27 27 28 27 27 27 27 26 26 26 26 26 26 27 27 26 27 27 27 28 28 28 29 29 29 29 29 29 29 29 29 29 28 28 29
26 27 27 27 27 27 27 27 27 28 28 28 28 28 28 28 28 27 27 27 27 26 26 27 27 28 28 28 28 28 29 29 29 29 29 29 30 29 29 30 30 29 29 29
Wind_Direction
274 273 275 276 278 279 281 283 284 285 287 289 288 288 288 286 285 285 283 282 279 278 277 279 281 283 282 283 286 291 291 289 287 285 286 287 288 287 287 282 276 279 277 276
277 275 275 278 278 279 282 281 280 281 283 283 284 286 285 286 285 286 284 280 277 278 279 280 280 277 280 282 285 286 290 288 286 284 281 284 287 285 286 280 276 277 276 276
277 280 282 282 280 281 281 281 281 281 282 282 284 282 282 286 284 284 284 280 280 281 282 281 280 281 280 281 283 286 286 288 285 285 285 287 286 284 283 279 277 277 274 275
276 281 285 285 283 283 281 281 280 279 282 285 286 284 283 286 284 285 284 282 281 280 281 282 281 281 280 280 282 283 283 286 285 283 282 284 283 282 281 278 278 278 277 278
284 286 288 290 290 284 281 280 278 280 283 283 284 283 284 285 283 285 282 279 279 282 283 282 280 280 279 279 282 282 282 284 283 283 281 281 280 279 278 277 277 276 277 277
287 288 289 292 292 291 285 279 276 275 279 283 284 280 277 278 282 284 284 283 283 285 286 283 281 280 281 280 279 281 282 282 284 283 279 277 278 277 276 277 278 278 277 275
289 289 289 290 290 291 289 282 279 279 283 287 288 283 280 279 280 282 283 284 286 286 284 284 282 281 281 282 281 279 279 279 281 282 280 276 276 278 276 276 276 276 275 274
288 285 285 288 288 289 287 281 277 273 272 279 283 280 283 286 286 283 283 284 284 284 282 283 282 281 282 282 282 279 278 278 280 280 278 276 275 273 274 274 271 269 270 273
286 283 285 285 283 286 286 281 278 273 274 269 277 283 286 286 286 285 285 286 286 284 284 283 281 280 280 280 279 279 277 278 278 278 276 278 277 276 275 274 273 270 269 272
282 284 284 285 286 285 284 282 279 276 275 272 272 278 286 288 288 287 288 287 286 285 284 283 283 283 280 278 277 277 276 277 278 278 277 278 279 280 277 276 273 271 269 268
278 282 283 283 284 286 283 280 277 276 276 275 271 274 280 285 287 288 290 288 286 285 283 283 283 282 281 279 278 277 275 276 278 279 278 278 279 280 279 276 274 272 269 269
280 281 283 283 283 284 281 280 277 274 274 274 272 271 280 284 285 285 286 287 286 284 283 282 283 282 279 278 277 277 277 275 275 277 279 280 278 278 277 275 272 270 270 270
280 278 281 283 282 282 281 279 278 277 276 274 273 276 282 284 285 285 285 285 285 284 283 283 282 281 280 277 277 277 276 274 275 275 276 278 278 277 276 274 271 270 270 271
279 277 278 280 280 280 282 281 278 276 276 276 276 279 281 282 285 285 284 283 284 283 283 284 283 282 281 278 276 276 274 273 274 275 276 276 276 276 275 273 271 271 271 271
279 276 276 277 278 277 280 280 280 279 280 279 279 277 279 280 284 285 283 281 281 281 282 284 284 282 281 277 274 275 275 275 275 276 276 276 278 278 277 275 275 272 272 272
279 277 277 276 277 278 279 280 282 282 281 281 280 278 278 280 282 284 285 283 283 282 282 282 283 282 281 278 276 276 276 276 277 277 277 277 277 278 278 278 275 273 272 272
276 276 276 277 278 280 281 284 284 282 281 282 281 280 279 279 281 283 284 284 286 286 285 284 283 282 280 278 278 278 278 278 278 277 277 276 277 278 277 277 275 274 273 272
274 276 277 278 279 279 283 285 283 282 282 282 281 280 280 280 281 283 285 285 286 285 285 285 285 284 282 281 280 279 279 279 278 277 277 277 278 278 277 277 276 274 273 272
275 276 278 279 280 281 283 283 283 283 283 283 282 281 281 282 282 282 283 285 286 285 285 284 284 284 283 282 281 280 280 279 279 278 278 278 278 278 278 276 277 276 273 272
275 276 275 277 278 280 285 285 284 284 283 285 284 282 284 283 283 282 283 284 285 285 286 286 285 285 285 284 283 282 281 281 280 279 279 279 278 278 277 276 277 277 275 273
276 276 276 277 278 280 284 284 284 283 285 286 287 285 286 284 284 285 284 283 283 284 283 284 285 285 285 285 284 283 283 282 281 279 278 279 279 279 280 279 279 278 276 274
275 275 276 278 278 280 283 284 282 281 282 284 284 285 286 285 285 285 283 282 282 283 282 283 284 285 284 284 284 284 283 282 282 280 279 279 279 280 281 280 280 278 278 276
273 276 278 278 279 281 281 282 281 281 281 282 283 284 284 285 285 284 284 284 283 284 284 284 285 285 285 284 285 284 284 283 281 280 279 279 280 280 280 280 279 278 278 277
274 276 278 279 279 280 280 279 279 279 280 281 282 283 284 283 283 283 283 284 285 285 284 285 285 285 284 284 284 284 284 284 281 280 279 281 281 281 282 281 280 279 278 278
274 276 277 278 279 279 278 278 278 277 279 281 283 283 283 283 282 283 284 285 285 285 285 285 285 284 285 285 284 285 284 284 283 282 281 282 281 281 282 282 282 280 279 278
274 276 277 278 280 280 279 278 277 278 279 281 282 282 283 283 283 283 284 285 285 286 286 285 284 284 284 286 286 286 285 285 283 282 282 282 281 281 281 281 281 280 280 279
Height
5842 5843 5843 5843 5843 5843 5843 5842 5842 5842 5841 5841 5840 5840 5840 5840 5839 5839 5839 5839 5839 5839 5839 5839 5839 5838 5838 5838 5837 5836 5836 5836 5835 5835 5834 5834 5833 5833 5832 5832 5832 5832 5832 5832
5841 5841 5841 5840 5840 5840 5840 5839 5839 5839 5839 5838 5838 5838 5837 5837 5836 5837 5837 5836 5836 5836 5836 5836 5836 5835 5835 5835 5835 5834 5834 5833 5832 5832 5831 5831 5831 5830 5830 5830 5830 5830 5830 5830
5839 5840 5838 5838 5838 5838 5837 5837 5836 5836 5836 5835 5836 5835 5835 5834 5834 5834 5834 5834 5833 5833 5833 5833 5833 5832 5832 5832 5832 5831 5831 5830 5830 5829 5828 5828 5828 5827 5827 5827 5827 5827 5827 5827
5836 5836 5836 5836 5835 5834 5834 5833 5833 5833 5833 5833 5833 5833 5833 5832 5831 5831 5831 5831 5831 5831 5830 5830 5830 5830 5829 5829 5829 5828 5828 5828 5827 5826 5826 5825 5825 5825 5824 5824 5824 5824 5824 5824
5834 5834 5833 5833 5833 5832 5831 5831 5830 5831 5830 5831 5831 5830 5831 5829 5829 5829 5829 5828 5828 5828 5827 5827 5827 5826 5826 5826 5826 5825 5825 5825 5824 5824 5823 5823 5822 5822 5822 5821 5821 5822 5822 5822
5832 5831 5831 5831 5830 5829 5828 5828 5828 5828 5828 5828 5829 5828 5828 5827 5826 5826 5826 5825 5825 5825 5825 5824 5824 5824 5823 5823 5823 5822 5822 5822 5821 5821 5820 5819 5819 5819 5819 5819 5819 5819 5819 5819
5829 5829 5828 5828 5827 5826 5826 5826 5825 5825 5826 5827 5826 5825 5825 5824 5824 5824 5823 5823 5823 5822 5822 5821 5821 5820 5820 5820 5819 5819 5819 5818 5818 5818 5817 5816 5816 5816 5816 5816 5816 5816 5817 5817
5827 5827 5826 5825 5825 5824 5823 5823 5824 5824 5824 5824 5823 5822 5822 5821 5821 5821 5820 5820 5819 5819 5819 5818 5818 5817 5817 5816 5816 5815 5815 5815 5814 5814 5814 5813 5813 5813 5813 5813 5813 5813 5814 5815
5824 5824 5823 5822 5822 5822 5821 5820 5821 5820 5820 5821 5820 5820 5818 5817 5817 5817 5817 5816 5816 5815 5815 5814 5814 5813 5813 5813 5812 5812 5811 5811 5811 5810 5810 5810 5810 5810 5810 5810 5810 5811 5811 5812
5821 5821 5820 5819 5819 5819 5818 5818 5818 5817 5817 5817 5818 5817 5815 5813 5813 5813 5813 5812 5812 5811 5811 5810 5810 5809 5809 5808 5808 5808 5807 5807 5807 5807 5806 5806 5806 5806 5806 5807 5807 5807 5808 5808
5817 5817 5817 5816 5815 5815 5816 5815 5814 5814 5814 5814 5814 5815 5812 5811 5809 5809 5808 5808 5807 5807 5807 5806 5805 5805 5804 5804 5803 5803 5803 5803 5803 5802 5802 5802 5802 5802 5802 5802 5803 5803 5803 5804
5814 5814 5813 5813 5812 5812 5812 5812 5811 5811 5811 5810 5810 5812 5808 5807 5806 5805 5804 5803 5803 5802 5802 5801 5801 5800 5799 5799 5799 5798 5798 5798 5798 5798 5798 5798 5798 5797 5797 5798 5798 5798 5798 5799
5811 5810 5809 5809 5810 5809 5808 5808 5807 5807 5806 5806 5806 5808 5804 5803 5802 5800 5800 5799 5798 5798 5797 5796 5796 5795 5795 5794 5793 5793 5793 5793 5793 5793 5793 5793 5793 5793 5792 5792 5792 5793 5793 5793
5807 5806 5807 5807 5805 5804 5804 5804 5803 5803 5802 5801 5802 5801 5799 5798 5797 5796 5795 5794 5793 5792 5792 5791 5790 5790 5789 5788 5788 5788 5788 5788 5788 5787 5787 5787 5787 5787 5786 5786 5787 5787 5787 5788
5802 5803 5802 5801 5801 5800 5800 5799 5799 5798 5797 5797 5797 5796 5794 5793 5792 5790 5789 5788 5788 5787 5786 5786 5785 5784 5784 5783 5783 5783 5782 5782 5782 5782 5782 5781 5781 5781 5779 5779 5780 5780 5781 5781
5798 5798 5797 5797 5796 5795 5795 5795 5794 5793 5792 5791 5791 5791 5789 5788 5786 5785 5783 5783 5782 5781 5781 5780 5779 5778 5778 5778 5777 5777 5777 5776 5775 5775 5775 5775 5775 5774 5773 5772 5773 5774 5774 5774
5793 5793 5792 5792 5791 5790 5790 5790 5789 5788 5787 5786 5785 5785 5783 5782 5781 5780 5778 5777 5776 5775 5775 5774 5773 5773 5772 5772 5771 5770 5770 5769 5769 5769 5768 5768 5768 5767 5767 5766 5766 5766 5767 5767
5788 5787 5786 5786 5786 5784 5786 5784 5783 5782 5781 5780 5779 5778 5777 5776 5775 5774 5773 5771 5771 5770 5769 5768 5767 5766 5766 5765 5764 5763 5763 5762 5762 5761 5761 5761 5760 5760 5760 5759 5759 5758 5758 5759
5781 5781 5780 5780 5779 5778 5779 5778 5777 5776 5775 5774 5773 5772 5771 5770 5769 5768 5767 5765 5765 5764 5763 5762 5761 5760 5759 5758 5757 5756 5756 5755 5754 5754 5754 5753 5753 5753 5752 5752 5751 5750 5750 5751
5776 5775 5775 5774 5773 5772 5774 5772 5770 5771 5769 5768 5767 5765 5765 5763 5762 5762 5761 5759 5758 5757 5756 5755 5754 5753 5752 5751 5750 5749 5748 5748 5747 5746 5746 5745 5745 5745 5744 5744 5743 5742 5742 5742
5769 5768 5768 5767 5766 5766 5767 5765 5765 5765 5764 5762 5760 5759 5758 5756 5756 5755 5753 5752 5751 5750 5749 5748 5747 5746 5745 5743 5742 5741 5741 5740 5739 5739 5738 5738 5737 5737 5736 5736 5735 5734 5734 5734
5762 5762 5762 5761 5760 5762 5760 5758 5758 5758 5756 5755 5754 5752 5751 5750 5749 5748 5746 5745 5744 5743 5742 5741 5740 5739 5737 5736 5735 5734 5733 5732 5731 5730 5730 5730 5729 5728 5728 5727 5727 5726 5725 5725
5756 5756 5755 5755 5755 5754 5753 5751 5750 5749 5748 5747 5746 5745 5744 5743 5742 5740 5739 5738 5737 5736 5735 5734 5732 5731 5730 5728 5727 5726 5725 5724 5723 5722 5721 5721 5720 5720 5719 5718 5718 5717 5717 5716
5750 5749 5748 5747 5747 5746 5745 5744 5743 5742 5741 5740 5739 5738 5737 5736 5735 5733 5732 5731 5730 5729 5727 5726 5725 5723 5722 5721 5719 5718 5717 5716 5715 5714 5713 5712 5712 5711 5710 5709 5709 5708 5707 5707
5742 5741 5740 5740 5739 5738 5738 5737 5736 5734 5734 5733 5732 5730 5729 5728 5727 5726 5725 5724 5722 5721 5720 5718 5717 5715 5714 5712 5711 5710 5709 5707 5706 5705 5704 5704 5703 5702 5701 5700 5699 5699 5698 5697
5735 5734 5733 5732 5732 5731 5730 5729 5728 5727 5726 5725 5724 5723 5722 5720 5719 5718 5717 5716 5715 5713 5712 5710 5709 5707 5706 5704 5703 5701 5700 5698 5697 5696 5696 5695 5694 5693 5692 5691 5691 5690 5689 5688